Flag for U.S.A. Weather past 2 weeks in Flint, Michigan, U.S.A.

Now
65 °F

Clear.


Feels Like: 65 °F
Forecast: 62 / 86 °F
Wind: 3 mph from South

Location: Bishop International Airport

Current Time: Jul 6, 2015 at 2:05:34 AM

Latest Report: Jul 6, 2015 at 12:53 AM


Visibility: 9 mi

Pressure: 30.06 "Hg

Humidity: 73%

Dew point: 56 °F

Location of FlintLocation

Historic Weather in Flint — Graph

°F

Flint temperature yesterday

Maximum temperature yesterday: 84 °F (at 4:53 PM)
Minimum temperature yesterday: 59 °F (at 5:53 AM)
Average temperature yesterday: 73 °F

Past Weeks' High & Low Weather Summary

 TemperatureHumidityPressure
High85 °F (Jun 21, 5:53 PM)91% (Jun 30, 9:53 PM)30.16 "Hg (Jun 30, 9:53 PM)
Low48 °F (Jul 3, 4:53 AM)32% (Jul 3, 1:53 PM)29.67 "Hg (Jun 22, 11:53 PM)
Average69 °F66%29.94 "Hg
* Reported Jun 21 1:53 AM — Jul 6 12:53 AM, Flint, Weather by CustomWeather, © 2015

Note: Actual official high and low records may vary slightly from our data, if they occured in-between our weather recording intervals... More about our weather records

Advertising

Flint weather history for previous 24 hours

 ConditionsComfort  
Time TempWeatherWind HumidityBarometerVisibility
12:53 AM
Mon, Jul 6
65 °FClear.3 mph73%30.06 "Hg9 mi
11:53 PM
Sun, Jul 5
68 °FClear.5 mph68%30.06 "Hg10 mi
10:53 PM72 °FClear.5 mph61%30.07 "Hg10 mi
9:53 PM74 °FSunny.6 mph62%30.06 "Hg10 mi
8:53 PM78 °FSunny.6 mph56%30.05 "Hg9 mi
7:53 PM81 °FSunny.7 mph49%30.06 "Hg9 mi
6:53 PM83 °FSunny.6 mph46%30.06 "Hg10 mi
5:53 PM83 °FScattered clouds.6 mph48%30.07 "Hg10 mi
4:53 PM84 °FSunny.5 mph46%30.08 "Hg10 mi
3:53 PM83 °FSunny.No wind44%30.08 "Hg10 mi
2:53 PM83 °FSunny.7 mph44%30.10 "Hg10 mi
1:53 PM82 °FSunny.5 mph46%30.11 "Hg10 mi
12:53 PM81 °FSunny.7 mph49%30.10 "Hg10 mi
11:53 AM79 °FSunny.6 mph52%30.12 "Hg10 mi
10:53 AM76 °FSunny.7 mph62%30.12 "Hg9 mi
9:53 AM73 °FSunny.3 mph69%30.12 "Hg7 mi
8:53 AM69 °FSunny.3 mph76%30.11 "Hg4 mi
7:53 AM64 °FSunny.5 mph84%30.10 "Hg3 mi
6:53 AM60 °FFog.No wind86%30.09 "Hg3 mi
5:53 AM59 °FFog.No wind87%30.08 "Hg4 mi
4:53 AM61 °FFog.No wind87%30.07 "Hg5 mi
3:53 AM61 °FFog.3 mph87%30.07 "Hg5 mi
2:53 AM62 °FHaze.No wind83%30.05 "Hg5 mi
Weather by CustomWeather, © 2015

See weather overviewHow to use our weather pages